Wetbulb
68.81 69.58 66.65 64.51 59.60 58.90 56.80 57.77 62.33 61.44 61.88 64.05 65.54 66.26 64.35 64.62 64.39 60.50 71.09 70.71 68.13 72.97 75.03 76.94 77.58 78.32 78.42 78.37 78.11 77.71 76.95 77.23 77.96 78.08 77.73 77.43 77.25 76.74 76.11 75.37 74.73 73.82 73.04 72.62 72.79 72.70 73.00 73.14 72.73
67.19 64.38 63.89 61.47 56.25 54.64 55.83 60.22 59.72 62.81 63.65 63.25 62.34 65.12 64.80 64.86 69.87 70.56 71.53 71.57 69.33 73.39 75.55 76.24 77.63 78.01 78.29 78.42 78.06 77.71 77.53 77.76 77.98 77.78 77.41 77.23 76.95 76.31 75.44 74.80 73.99 73.15 72.07 72.60 73.03 73.82 74.40 74.33 74.25
65.73 61.50 58.15 57.27 56.45 54.18 55.07 59.23 60.95 61.74 60.73 59.46 62.11 65.91 66.69 67.13 70.25 72.09 74.86 72.15 70.21 73.59 75.06 77.33 77.51 77.91 78.09 78.16 78.01 77.58 77.61 77.68 77.73 77.35 77.30 76.93 76.50 75.91 75.34 74.46 73.46 72.18 72.82 73.97 74.68 74.96 74.80 74.49 74.45
59.90 58.77 57.98 53.20 54.01 57.70 58.46 60.23 60.48 60.56 59.41 59.76 62.92 62.52 68.16 72.46 71.33 74.33 75.26 72.44 70.95 72.84 74.43 76.69 77.30 77.50 77.73 77.76 77.71 77.45 77.43 77.40 77.56 77.30 76.95 76.52 76.04 75.61 74.97 74.00 72.70 72.08 73.98 74.81 74.37 73.24 72.42 72.26 72.16
60.21 57.08 52.16 51.27 51.81 55.86 60.05 61.08 60.63 60.31 59.94 58.16 62.28 62.25 65.95 73.43 74.53 75.27 74.91 73.56 71.66 72.20 74.79 77.21 77.10 77.48 77.66 77.56 77.33 77.28 77.18 77.18 77.15 77.18 76.62 76.42 75.94 75.23 74.48 73.35 72.24 73.12 74.46 73.86 72.10 70.14 69.75 69.65 70.16
55.29 55.66 50.12 48.64 50.99 54.54 57.16 59.59 60.06 60.15 60.27 59.10 59.08 63.60 68.62 74.30 73.75 74.40 75.31 74.11 72.69 71.88 75.89 76.76 77.04 77.18 77.25 77.33 77.18 77.13 76.87 76.92 76.97 76.95 76.88 76.35 75.46 74.79 74.04 72.90 72.05 73.88 73.91 72.71 71.53 70.12 70.16 70.92 71.23
54.13 53.16 49.88 50.49 50.90 52.35 54.23 57.79 57.72 58.67 58.83 58.29 59.47 63.04 70.62 72.80 75.07 74.79 75.04 74.71 72.89 72.19 75.04 75.94 75.78 76.85 77.15 77.10 77.02 76.79 76.62 76.67 76.85 76.75 76.70 76.07 75.25 74.48 73.57 72.58 72.18 73.57 73.04 72.46 71.47 70.98 71.06 71.50 70.36
55.79 53.89 50.45 51.28 50.25 50.84 55.11 55.09 57.79 57.20 57.69 60.13 62.04 62.20 64.90 73.48 75.41 75.42 75.15 74.23 72.20 71.84 74.06 74.18 74.50 74.94 74.22 75.53 76.87 76.74 76.62 76.74 76.74 76.67 76.37 75.69 74.98 74.22 73.29 73.49 73.34 73.42 72.94 72.44 72.13 71.50 71.56 70.82 72.66
57.06 51.07 49.57 50.59 50.92 52.06 55.29 53.63 57.01 58.33 57.05 59.00 60.13 63.58 70.44 74.71 75.19 74.50 74.03 73.39 72.02 70.94 72.48 73.22 73.38 73.95 73.17 73.44 75.59 76.50 75.94 76.17 76.35 75.81 75.92 75.46 74.01 73.77 73.97 73.95 73.83 73.64 73.24 72.94 72.62 72.02 72.13 72.18 72.49
53.69 50.45 50.45 54.10 54.19 52.86 54.21 54.19 55.13 54.57 56.05 57.33 59.44 65.96 69.61 73.16 74.42 73.43 73.19 72.60 71.68 70.41 70.89 72.29 72.34 73.03 72.75 72.75 74.99 74.01 74.07 74.57 74.41 74.38 75.25 74.48 73.75 74.60 74.39 74.84 74.04 73.28 73.61 73.72 72.56 70.83 72.26 71.99 69.79
54.19 50.64 53.64 53.74 54.26 54.45 53.97 54.08 55.74 54.43 53.46 57.25 58.50 60.55 65.96 70.65 73.12 73.16 72.91 73.47 72.68 71.43 71.43 71.93 72.61 74.96 72.55 72.29 74.99 72.73 73.26 73.18 73.86 74.63 75.79 75.66 73.40 73.88 73.70 73.98 73.35 72.10 73.50 72.54 71.62 69.53 68.24 67.34 67.64
51.06 53.41 53.99 54.31 54.36 53.76 53.19 55.27 54.00 54.70 55.61 58.27 60.03 60.23 60.71 67.83 70.82 71.99 72.35 72.88 72.73 72.05 71.42 72.17 72.85 74.78 74.39 72.73 73.90 73.72 72.58 73.17 73.12 73.96 75.22 75.40 73.58 73.35 73.44 73.05 73.20 73.72 72.91 72.15 70.01 68.74 69.11 67.70 67.71
51.33 52.69 53.96 54.52 54.44 54.39 54.87 53.48 53.34 54.09 56.66 58.06 58.76 59.38 60.52 62.14 68.89 71.05 72.30 73.04 73.60 72.72 72.61 72.61 73.60 75.09 76.00 76.57 73.84 73.97 73.24 73.39 74.01 74.09 74.86 74.69 73.57 73.24 73.22 73.84 73.48 73.84 73.84 72.24 70.87 69.17 68.90 68.03 67.46
53.20 52.71 52.63 53.27 53.24 53.98 52.11 52.08 53.02 54.25 56.83 56.81 57.53 58.63 60.40 63.19 65.27 70.88 71.93 71.76 73.12 74.32 73.79 74.34 73.61 77.03 75.58 76.54 77.85 74.39 74.77 74.92 74.13 73.71 73.90 75.04 74.20 74.64 72.92 73.72 74.02 74.39 74.50 73.85 71.79 69.32 68.10 67.52 67.44
52.47 49.79 51.98 52.01 52.92 52.61 53.75 50.68 50.91 55.24 56.81 56.04 56.88 58.54 59.76 62.48 68.71 71.37 72.66 73.16 73.52 74.94 75.47 75.29 75.70 76.61 77.17 75.96 76.50 76.25 75.44 74.73 74.16 73.63 75.47 74.64 75.43 75.44 75.86 73.40 74.19 74.70 78.55 75.58 72.83 70.39 68.81 66.90 67.34
50.49 50.84 47.68 52.27 52.96 52.99 52.57 48.19 53.11 55.51 55.52 55.39 56.14 57.62 58.63 59.95 64.20 67.37 70.78 73.10 74.64 75.05 75.70 76.30 75.58 75.80 77.18 77.45 76.69 75.50 75.37 75.23 74.73 74.42 74.26 74.23 74.24 75.11 76.01 72.87 73.70 74.67 77.97 76.01 71.94 70.23 67.95 66.37 66.72
50.18 45.87 48.03 49.68 52.72 52.01 51.01 49.29 53.08 55.83 55.57 55.50 56.18 57.06 58.07 59.10 62.05 65.59 65.17 64.35 68.13 74.32 75.82 75.82 77.67 75.88 76.84 78.26 76.91 77.12 78.22 75.74 75.16 75.06 74.60 75.53 73.71 73.18 74.22 72.40 72.54 75.53 74.79 74.67 72.72 70.44 69.91 66.85 67.06
46.93 47.82 48.76 48.81 51.47 51.17 50.31 49.97 53.05 54.93 55.27 55.13 55.83 56.65 57.78 58.40 63.39 66.29 67.67 69.33 66.49 66.04 75.08 76.51 76.85 78.86 79.71 77.81 78.13 76.44 75.84 75.49 75.36 74.72 74.70 75.90 73.87 73.46 74.30 72.22 73.83 74.98 74.09 74.24 72.98 72.88 70.47 67.80 67.17
49.93 48.50 48.41 50.34 51.69 49.54 49.89 50.22 51.93 53.89 54.24 54.52 55.23 56.43 57.23 59.78 63.93 65.29 67.14 69.47 71.16 68.79 70.18 75.24 75.67 79.32 77.72 75.89 75.57 75.15 74.06 74.98 75.02 74.97 74.76 75.70 73.92 73.63 75.68 72.22 73.79 75.00 74.39 75.69 74.02 71.08 70.47 67.22 68.52
49.18 47.57 47.78 49.80 51.27 50.27 49.73 49.11 51.65 53.17 53.78 54.65 55.20 56.44 58.33 60.83 62.74 65.12 67.23 69.27 70.75 71.63 70.90 72.98 75.56 76.99 77.13 76.68 77.27 76.26 75.38 74.66 74.64 74.01 74.40 74.39 73.73 73.94 74.02 73.98 73.10 75.34 73.15 75.29 73.25 73.08 69.71 67.45 68.13
48.66 47.73 47.83 47.57 49.90 50.27 48.97 47.94 50.64 53.13 54.38 56.16 57.82 59.61 60.71 61.81 62.81 65.35 67.35 69.31 70.44 71.11 71.54 71.34 73.31 75.97 77.57 77.97 77.08 76.26 76.05 75.68 73.66 74.16 73.14 73.34 73.03 72.83 73.31 73.95 73.58 75.41 74.96 72.97 73.89 72.63 71.88 66.86 67.13
46.25 50.11 48.83 47.75 47.16 44.30 50.65 42.55 49.28 51.88 52.72 55.34 57.28 58.68 60.24 62.06 64.50 66.21 67.73 68.96 69.94 70.97 72.81 73.74 71.14 74.56 75.84 77.25 76.92 78.39 73.99 72.99 72.91 74.31 73.85 73.70 72.99 72.84 72.77 72.56 73.47 75.08 73.35 75.34 73.61 72.27 72.53 71.25 65.92
47.71 51.09 49.64 48.60 47.22 47.54 47.56 45.14 49.19 51.82 51.44 54.24 57.19 59.50 61.13 63.25 64.19 65.12 66.79 67.85 69.25 70.96 72.23 73.57 75.31 73.72 75.17 75.69 76.39 75.03 74.68 74.24 74.39 73.43 76.56 75.82 74.28 72.30 71.26 73.12 73.33 73.55 74.37 75.71 76.23 74.30 73.96 70.98 67.13
51.43 49.70 49.52 49.40 47.93 42.60 46.90 46.47 46.82 49.81 51.71 55.31 58.51 59.77 60.76 61.90 63.50 64.45 65.84 67.00 67.52 69.10 70.53 71.92 72.68 74.22 74.81 74.95 75.46 74.43 74.42 74.87 73.42 74.80 72.96 72.80 72.71 72.67 73.28 71.87 73.20 73.35 74.49 74.73 73.49 73.42 72.49 71.31 71.11
49.80 47.92 42.01 40.86 41.27 40.78 48.33 46.19 48.06 54.46 56.26 57.47 58.16 59.36 60.15 60.87 62.37 61.76 61.67 63.87 65.47 66.21 67.16 68.42 69.06 69.71 71.90 73.63 74.17 73.64 73.82 73.65 74.25 74.05 73.92 74.18 72.93 72.74 74.63 74.15 74.35 74.02 75.55 74.33 73.38 71.88 70.85 71.23 69.36
48.18 47.77 42.50 36.55 38.27 42.41 48.02 43.67 47.64 56.39 58.33 59.29 59.73 59.12 58.83 60.27 61.16 59.76 60.01 62.43 63.74 64.70 65.45 66.05 66.03 66.28 68.57 70.22 71.03 72.87 73.90 73.70 72.65 73.44 73.10 74.96 74.23 74.04 75.42 74.74 74.84 73.30 72.57 71.84 71.56 69.94 69.11 70.01 69.79
46.60 44.12 48.88 43.96 46.14 42.57 45.78 49.68 53.32 55.80 55.99 56.94 57.41 57.03 56.72 57.57 59.21 57.85 58.55 60.14 61.34 62.45 63.60 64.49 65.82 66.02 66.20 66.94 68.78 71.02 71.51 71.31 72.78 74.49 75.02 74.16 73.52 72.92 73.93 73.13 72.88 71.42 70.92 70.63 70.58 69.43 68.38 69.87 69.42
47.78 49.60 43.26 43.80 35.09 33.92 41.46 41.74 43.08 49.92 52.29 55.11 54.83 55.23 55.66 56.47 56.97 57.51 58.26 58.73 59.39 59.64 61.13 63.14 65.52 65.51 65.94 66.35 67.00 67.32 69.66 71.22 69.78 70.45 72.02 72.42 73.19 71.22 71.68 71.68 71.43 70.70 70.43 70.07 69.12 68.31 69.23 69.33 68.26
45.94 44.88 46.58 45.95 43.32 37.92 36.58 40.57 50.26 50.01 49.17 50.53 53.33 53.48 54.10 55.28 56.21 56.89 57.63 58.38 59.06 60.13 60.35 60.84 61.59 63.13 64.47 65.02 65.63 66.33 66.87 68.73 70.19 69.25 68.65 69.50 70.67 70.38 70.24 70.60 70.55 70.11 69.10 69.01 68.60 68.21 67.70 66.54 66.96
48.50 46.76 45.41 40.11 40.20 43.15 42.26 41.77 52.33 51.64 50.63 49.79 51.12 52.23 52.94 53.33 53.79 54.51 55.34 55.90 56.76 57.21 58.06 59.53 60.73 60.26 61.41 63.98 64.64 65.00 65.70 66.44 68.09 67.69 69.73 68.11 69.08 69.61 68.84 69.90 68.83 68.82 68.12 68.37 67.22 66.98 66.96 66.34 66.04
MSLP
1009.73 1008.69 1007.20 1005.83 1004.27 1001.42 999.88 1001.26 1001.32 1001.77 1001.53 1001.90 1001.73 1000.91 1001.34 1002.20 1000.51 1002.61 1003.09 1004.07 1004.94 1006.36 1008.44 1009.98 1010.96 1011.45 1011.80 1012.22 1012.74 1013.42 1014.01 1014.25 1014.30 1014.50 1014.76 1014.99 1015.24 1015.44 1015.55 1015.64 1015.69 1015.71 1015.76 1015.80 1015.86 1015.89 1015.89 1015.87 1015.84
1008.15 1007.36 1006.51 1004.72 1002.64 999.72 999.47 1000.77 1000.86 1001.12 1001.54 1001.86 1001.67 1001.26 1000.96 999.96 1000.64 1002.82 1003.47 1004.47 1005.33 1006.82 1008.65 1009.51 1010.93 1011.58 1012.09 1012.44 1012.82 1013.40 1014.08 1014.51 1014.77 1014.90 1015.07 1015.32 1015.56 1015.73 1015.84 1015.87 1015.89 1015.90 1015.91 1015.97 1015.99 1015.98 1015.96 1015.93 1015.91
1008.59 1007.23 1005.74 1003.30 1001.53 999.34 1000.23 1000.57 1000.68 1001.52 1001.60 1001.48 1001.14 1001.49 1000.90 1000.87 1002.05 1002.47 1003.94 1004.65 1005.52 1007.08 1008.60 1009.73 1011.02 1011.70 1012.30 1012.80 1013.07 1013.44 1013.99 1014.41 1014.73 1015.03 1015.22 1015.39 1015.65 1015.88 1016.06 1016.15 1016.16 1016.14 1016.08 1016.08 1016.11 1016.11 1016.07 1015.99 1015.92
1007.07 1006.07 1005.28 1003.29 1000.82 999.38 999.16 1000.56 1001.58 1001.36 1001.39 1001.45 1001.35 1000.94 1001.59 1002.56 1002.60 1003.41 1004.42 1004.78 1005.61 1006.86 1008.23 1010.39 1011.17 1011.70 1012.37 1013.00 1013.42 1013.64 1014.02 1014.49 1014.85 1015.15 1015.29 1015.47 1015.67 1015.95 1016.16 1016.27 1016.36 1016.38 1016.35 1016.27 1016.23 1016.20 1016.15 1016.11 1015.99
1006.93 1005.19 1003.40 1001.93 1000.76 999.73 999.45 1000.32 1001.47 1001.14 1001.26 1001.52 1001.38 1001.10 1001.58 1003.27 1003.99 1004.16 1004.56 1004.97 1005.60 1006.62 1008.00 1010.34 1011.15 1011.83 1012.40 1012.99 1013.63 1014.06 1014.38 1014.64 1015.01 1015.37 1015.58 1015.68 1015.83 1016.01 1016.18 1016.31 1016.38 1016.41 1016.42 1016.42 1016.38 1016.30 1016.17 1016.09 1016.06
1005.66 1004.60 1002.82 1001.08 1000.03 999.67 999.51 1000.39 1001.16 1001.32 1001.03 1001.32 1001.48 1001.43 1002.05 1003.63 1003.95 1004.01 1004.34 1004.94 1005.55 1006.58 1008.09 1010.20 1011.42 1011.89 1012.45 1013.06 1013.52 1014.05 1014.51 1014.86 1015.19 1015.48 1015.79 1016.06 1016.27 1016.34 1016.32 1016.35 1016.39 1016.43 1016.48 1016.46 1016.44 1016.38 1016.31 1016.18 1016.07
1005.37 1003.58 1002.36 1001.01 999.74 999.14 999.51 1000.43 1000.80 1001.18 1001.08 1001.31 1002.15 1001.37 1002.50 1002.86 1003.99 1004.25 1004.46 1004.89 1005.64 1006.71 1008.21 1010.21 1011.26 1011.91 1012.65 1013.11 1013.59 1013.94 1014.40 1014.83 1015.16 1015.49 1015.81 1016.13 1016.37 1016.44 1016.42 1016.46 1016.48 1016.50 1016.47 1016.46 1016.42 1016.35 1016.24 1016.15 1016.09
1005.17 1004.01 1002.32 1001.15 1000.12 999.63 999.88 1000.90 1001.31 1001.23 1001.41 1001.94 1002.39 1001.92 1003.03 1003.44 1003.78 1004.35 1004.52 1005.06 1005.58 1006.73 1007.96 1009.79 1010.69 1011.54 1012.09 1012.85 1013.60 1014.00 1014.33 1014.75 1015.16 1015.47 1015.77 1016.04 1016.26 1016.35 1016.40 1016.41 1016.44 1016.53 1016.48 1016.40 1016.33 1016.25 1016.13 1015.96 1015.84
1005.65 1004.12 1002.08 1000.82 1000.23 1000.04 1000.24 1001.42 1001.26 1001.63 1001.95 1001.92 1001.94 1002.37 1003.42 1004.43 1003.82 1004.13 1004.41 1004.81 1005.47 1006.39 1007.42 1008.87 1009.77 1010.80 1011.36 1011.96 1013.21 1013.96 1014.33 1014.67 1015.10 1015.43 1015.76 1016.02 1015.45 1015.58 1015.83 1015.79 1016.24 1016.47 1016.50 1016.41 1016.28 1016.19 1016.06 1015.81 1015.61
1005.07 1003.57 1001.96 1000.99 1000.72 1000.97 1000.87 1001.58 1001.53 1001.76 1001.59 1001.32 1001.64 1002.52 1003.23 1003.26 1003.82 1004.12 1004.32 1004.61 1005.33 1006.10 1006.66 1007.68 1008.92 1009.90 1010.48 1010.93 1012.40 1013.25 1013.67 1014.07 1014.33 1014.49 1014.95 1015.22 1014.64 1014.19 1014.63 1015.36 1016.18 1016.43 1016.44 1016.32 1016.21 1016.04 1015.76 1015.52 1014.45
1004.28 1003.44 1002.03 1001.68 1002.64 1002.53 1001.88 1001.63 1002.02 1001.97 1001.33 1000.97 1000.96 1001.61 1002.86 1003.70 1003.69 1003.39 1003.69 1004.14 1005.17 1006.62 1006.65 1007.29 1008.30 1009.17 1009.72 1009.88 1011.39 1012.20 1012.48 1013.07 1013.57 1013.83 1014.04 1014.41 1013.83 1014.14 1014.53 1014.64 1015.43 1015.76 1016.11 1015.34 1015.64 1015.42 1014.99 1014.11 1013.89
1003.93 1003.41 1002.92 1002.51 1002.88 1003.29 1002.77 1002.46 1002.04 1002.01 1001.73 1000.95 1001.05 1001.93 1002.43 1003.16 1003.39 1003.19 1003.08 1003.45 1004.57 1005.48 1006.08 1006.79 1007.72 1008.78 1009.28 1009.30 1010.30 1011.07 1011.33 1011.98 1012.46 1013.04 1013.64 1013.79 1014.02 1013.87 1013.96 1013.63 1013.73 1014.39 1014.36 1014.09 1014.53 1013.76 1014.68 1014.78 1014.62
1003.38 1003.20 1002.83 1003.20 1003.21 1003.30 1003.21 1002.72 1002.29 1002.04 1001.93 1001.94 1001.75 1002.22 1002.21 1002.27 1003.05 1003.28 1002.98 1002.91 1003.44 1004.54 1005.70 1006.60 1007.42 1008.59 1009.29 1009.45 1009.94 1010.27 1010.72 1011.10 1011.55 1012.12 1012.91 1013.34 1013.50 1013.72 1013.73 1013.49 1013.42 1013.32 1013.29 1013.75 1014.00 1014.20 1014.53 1014.51 1014.58
1003.20 1003.22 1003.08 1002.93 1003.10 1003.21 1003.27 1002.82 1002.52 1001.92 1001.88 1002.09 1001.93 1002.04 1001.71 1001.64 1001.97 1003.03 1003.71 1003.86 1003.92 1004.24 1005.46 1006.63 1007.35 1008.52 1009.31 1009.64 1009.84 1010.24 1010.45 1010.62 1011.31 1011.63 1012.13 1013.23 1013.21 1013.38 1013.41 1013.68 1013.74 1013.40 1013.29 1013.41 1013.87 1014.04 1014.52 1014.45 1014.31
1003.65 1003.29 1002.95 1002.67 1002.79 1002.87 1003.01 1002.53 1001.80 1001.53 1001.53 1001.75 1001.90 1001.79 1001.69 1001.62 1002.11 1002.46 1003.43 1004.41 1004.70 1004.86 1005.37 1006.28 1007.18 1008.34 1009.47 1009.78 1010.15 1010.25 1010.32 1010.68 1011.03 1011.33 1011.90 1012.60 1013.31 1013.28 1013.50 1013.34 1013.44 1013.26 1013.50 1013.60 1014.34 1014.52 1014.63 1014.61 1014.50
1003.73 1003.29 1002.21 1001.35 1001.98 1002.52 1002.91 1001.36 1000.76 1001.19 1001.52 1001.77 1001.68 1001.55 1001.63 1001.97 1002.20 1003.26 1003.26 1004.10 1004.87 1005.47 1006.03 1006.53 1007.16 1007.70 1009.11 1009.62 1010.18 1010.19 1010.16 1010.38 1010.53 1010.96 1011.30 1012.15 1012.65 1013.19 1013.58 1013.38 1013.15 1013.15 1013.35 1013.81 1014.22 1014.43 1014.31 1014.28 1014.27
1003.14 1002.14 1001.35 1000.69 1001.47 1002.07 1002.38 1001.26 1000.63 1000.59 1001.44 1001.77 1001.54 1001.35 1001.70 1002.09 1003.16 1004.54 1004.69 1004.80 1004.85 1005.38 1005.88 1006.59 1007.15 1007.41 1008.31 1009.54 1009.94 1010.27 1010.17 1010.44 1010.36 1010.55 1010.85 1011.45 1012.05 1012.47 1013.15 1013.18 1012.98 1013.36 1013.29 1013.57 1014.08 1014.22 1014.40 1014.18 1014.57
1001.52 1001.27 1001.07 1000.33 1001.14 1002.20 1001.61 1001.50 1000.61 1000.80 1001.54 1001.76 1001.76 1001.73 1001.69 1002.48 1004.00 1005.30 1005.55 1005.51 1005.59 1005.65 1005.71 1006.30 1007.02 1007.67 1008.00 1009.00 1009.87 1009.87 1009.94 1009.93 1009.88 1010.10 1010.47 1010.99 1011.71 1012.24 1012.73 1012.75 1012.80 1013.01 1013.29 1013.48 1013.96 1014.39 1014.36 1014.55 1014.37
1001.66 1001.57 1000.75 1000.52 1000.98 1001.99 1001.65 1001.06 1000.78 1000.92 1001.35 1001.48 1001.57 1001.93 1002.45 1003.20 1004.69 1005.81 1006.00 1005.78 1005.86 1006.07 1005.87 1006.43 1006.93 1007.46 1008.19 1008.47 1008.85 1009.28 1009.27 1009.29 1009.64 1010.58 1011.08 1011.02 1011.12 1011.84 1012.53 1012.91 1013.00 1013.10 1013.27 1013.52 1014.08 1014.67 1014.98 1014.70 1014.65
1002.71 1002.32 1001.88 1001.57 1001.46 1002.09 1002.00 1001.25 1000.92 1000.85 1001.04 1001.43 1001.59 1001.87 1003.24 1004.43 1005.28 1006.00 1005.81 1006.00 1006.16 1006.48 1006.66 1006.45 1006.87 1007.39 1008.12 1008.17 1008.46 1008.53 1008.80 1008.84 1009.48 1010.34 1011.03 1011.46 1011.65 1011.91 1012.05 1012.43 1012.58 1012.82 1013.16 1013.64 1014.29 1014.61 1014.47 1014.65 1014.41
1002.90 1002.53 1002.09 1001.76 1001.46 1002.45 1002.21 1000.90 1000.61 1000.70 1000.86 1001.82 1003.00 1003.58 1004.57 1005.15 1005.32 1005.55 1005.84 1006.32 1006.47 1006.74 1006.74 1006.69 1006.77 1007.15 1007.73 1008.22 1008.31 1008.73 1008.87 1008.66 1008.68 1009.30 1010.66 1011.08 1011.13 1011.47 1011.48 1011.67 1012.27 1012.26 1012.93 1013.05 1014.09 1014.48 1014.68 1014.23 1014.19
1002.79 1002.71 1002.79 1002.27 1002.07 1001.33 1001.39 1000.09 999.58 1000.27 1001.73 1002.90 1003.75 1004.23 1004.71 1005.14 1005.41 1005.85 1005.98 1006.51 1006.70 1006.88 1006.77 1006.56 1006.88 1006.90 1007.47 1007.89 1008.14 1008.15 1008.37 1008.39 1008.28 1008.54 1009.56 1010.30 1011.22 1011.25 1011.13 1011.46 1011.66 1011.86 1012.34 1012.86 1013.63 1014.08 1014.21 1014.60 1014.12
1002.88 1002.79 1002.52 1002.98 1002.39 1001.88 1000.79 1000.70 999.02 999.67 1001.36 1002.87 1004.13 1005.00 1005.41 1005.57 1006.16 1006.43 1006.84 1007.24 1007.17 1007.21 1007.33 1007.41 1007.00 1007.07 1007.45 1007.61 1008.18 1008.14 1008.49 1008.26 1007.98 1008.48 1008.87 1009.57 1010.46 1010.87 1010.97 1011.24 1011.74 1012.03 1012.46 1012.45 1012.98 1013.60 1013.97 1013.90 1014.27
1003.46 1003.40 1003.22 1002.95 1002.69 1001.64 1001.01 1000.44 999.81 999.28 1000.33 1002.51 1004.80 1005.81 1006.01 1006.09 1006.61 1007.05 1007.44 1007.88 1007.97 1008.07 1008.15 1008.45 1008.27 1008.21 1008.40 1007.90 1008.10 1008.58 1008.59 1008.41 1008.16 1008.04 1008.54 1009.04 1009.65 1010.26 1010.59 1010.84 1011.29 1011.70 1012.06 1012.33 1012.59 1013.35 1013.80 1014.15 1014.20
1004.26 1003.78 1003.17 1002.72 1002.16 1001.10 1001.20 1000.88 1000.56 1001.74 1002.04 1003.48 1005.30 1006.17 1006.48 1006.75 1007.13 1007.69 1007.98 1008.10 1008.64 1008.84 1008.93 1008.83 1009.16 1009.22 1009.11 1008.90 1008.73 1008.79 1008.88 1008.94 1008.89 1008.69 1008.12 1008.43 1008.46 1008.93 1009.50 1010.37 1010.81 1011.13 1011.48 1011.88 1012.41 1013.13 1013.36 1013.80 1014.09
1003.44 1003.75 1003.13 1002.13 1001.57 1001.01 1001.08 1000.46 1001.78 1003.59 1004.65 1005.30 1006.19 1006.72 1007.20 1007.42 1007.96 1008.43 1008.90 1008.82 1009.00 1009.49 1009.76 1009.68 1009.69 1009.72 1009.56 1009.40 1009.43 1009.44 1009.17 1009.01 1009.04 1008.89 1008.64 1008.38 1008.43 1008.60 1008.73 1009.87 1010.44 1011.03 1011.41 1012.02 1012.53 1012.95 1012.99 1013.08 1013.54
1004.52 1004.15 1004.13 1004.40 1003.83 1003.18 1002.71 1003.21 1004.70 1005.28 1005.99 1006.43 1006.68 1007.20 1007.98 1008.36 1008.59 1008.90 1009.23 1009.41 1009.20 1009.36 1009.79 1010.07 1010.10 1010.06 1010.06 1009.85 1009.74 1009.46 1009.57 1009.41 1009.29 1008.97 1008.79 1008.90 1009.07 1009.46 1009.50 1010.24 1010.74 1011.25 1011.39 1011.58 1011.74 1011.81 1012.03 1012.01 1012.23
1005.71 1005.09 1005.47 1005.49 1005.50 1004.90 1004.69 1005.33 1006.76 1006.77 1007.12 1006.94 1007.07 1007.69 1008.59 1009.04 1008.99 1009.22 1009.26 1009.63 1009.57 1009.70 1009.86 1010.23 1010.26 1010.22 1010.31 1010.21 1010.06 1009.94 1009.61 1009.51 1009.77 1009.67 1009.34 1009.23 1009.27 1009.83 1010.11 1010.39 1010.73 1011.13 1011.23 1011.27 1011.41 1011.49 1011.31 1011.02 1010.93
1005.88 1006.02 1006.19 1006.63 1007.81 1006.59 1006.37 1006.45 1008.41 1009.07 1010.31 1008.09 1008.24 1009.19 1009.49 1009.69 1009.78 1009.80 1009.88 1010.15 1009.98 1009.99 1010.08 1010.47 1010.53 1010.18 1010.27 1010.33 1010.28 1010.27 1010.10 1009.90 1010.10 1010.00 1009.93 1009.85 1009.70 1009.78 1009.93 1010.31 1010.61 1010.85 1011.12 1011.38 1011.52 1011.69 1011.86 1011.77 1011.66
1007.18 1006.72 1007.12 1007.83 1007.61 1007.57 1007.22 1007.33 1008.53 1009.38 1010.34 1010.69 1010.11 1010.68 1010.52 1010.61 1010.67 1010.52 1010.53 1010.59 1010.74 1010.93 1011.05 1010.89 1011.00 1010.50 1010.37 1010.38 1010.31 1010.43 1010.40 1010.17 1009.98 1010.25 1009.84 1010.02 1009.85 1009.81 1009.87 1010.17 1010.55 1010.61 1010.89 1011.23 1011.53 1011.43 1011.33 1011.53 1011.31
Wind_Speed
12 15 10 11 10 10 7 7 2 7 4 6 2 10 14 26 18 5 14 12 17 22 22 20 16 14 15 16 16 14 11 11 13 12 12 12 11 11 9 8 8 7 6 5 4 3 2 1 2
13 9 10 10 12 14 8 11 5 10 8 3 2 6 7 9 16 13 14 12 19 21 20 20 18 15 14 16 17 16 14 11 11 11 12 11 10 9 8 7 6 6 4 4 2 1 1 1 1
14 9 11 13 14 17 12 4 6 3 2 3 2 1 6 11 9 7 14 15 19 20 20 19 18 16 14 14 16 17 15 14 13 12 12 11 11 9 7 6 5 4 3 3 3 1 1 1 2
7 9 9 12 19 15 4 11 4 3 5 6 5 5 6 9 3 7 10 15 19 21 20 23 18 18 16 14 14 16 16 14 13 12 12 12 11 10 8 6 4 3 2 2 2 2 1 1 2
9 9 12 16 17 21 5 4 1 5 3 3 5 4 3 9 3 5 9 14 18 20 20 20 20 18 17 16 14 14 14 13 12 11 11 10 10 10 9 7 6 4 2 1 1 1 1 2 4
9 8 13 14 18 14 9 1 5 7 2 0 8 3 9 10 3 4 10 15 17 19 20 18 18 19 18 17 16 14 13 12 11 10 9 8 8 8 8 7 6 5 3 2 1 2 4 5 5
15 12 14 17 16 9 4 4 8 9 5 2 6 9 9 8 8 5 10 15 16 19 19 18 18 17 17 16 15 14 13 12 11 10 9 8 7 6 6 6 6 5 4 3 2 3 5 6 7
13 13 19 16 14 13 5 3 12 4 10 6 3 7 8 10 9 9 14 15 17 17 19 18 17 17 17 15 14 14 13 12 11 10 10 9 8 7 7 7 8 7 5 3 3 4 6 7 7
9 13 14 17 12 10 3 5 14 1 6 10 2 5 8 9 10 9 12 16 16 16 19 19 19 18 17 17 14 14 15 14 11 10 9 9 9 10 11 7 12 9 7 5 5 6 7 9 9
14 12 18 10 9 3 5 5 9 6 12 14 10 10 3 6 10 13 13 14 17 19 20 19 19 18 17 14 16 14 13 11 11 12 12 10 10 7 3 9 10 8 7 8 7 7 10 11 9
15 17 18 6 6 10 14 10 7 12 14 11 11 6 10 7 9 10 12 15 16 16 15 18 17 16 18 14 12 9 9 9 9 12 10 10 8 5 6 6 7 7 11 8 9 9 10 4 8
19 17 14 13 4 11 12 13 16 9 15 15 1 3 6 11 10 12 12 15 15 20 21 18 20 15 15 11 11 11 10 10 9 11 12 7 6 6 6 6 7 6 8 1 2 3 5 5 3
17 16 12 11 13 12 13 14 15 16 13 13 9 7 13 11 12 11 9 8 14 17 16 17 18 15 11 9 10 10 10 9 10 10 11 9 8 7 6 5 6 3 2 3 2 2 3 1 4
13 14 19 10 14 14 15 17 16 18 12 13 9 12 11 12 14 13 7 6 7 11 16 16 16 14 15 11 9 9 8 9 8 9 10 13 8 6 6 6 6 5 5 3 3 2 1 4 4
14 17 16 16 14 15 10 18 19 16 13 8 14 12 8 5 6 10 13 6 4 6 8 15 16 17 14 15 11 9 9 10 10 9 10 11 10 7 7 7 6 7 1 0 3 2 3 5 4
14 17 17 18 19 15 14 16 19 17 15 11 14 14 8 8 3 7 3 7 8 6 10 10 13 17 17 13 11 9 10 9 9 9 9 12 12 10 8 8 6 7 3 3 4 5 4 4 4
16 15 20 15 6 10 14 15 19 11 8 11 11 12 10 6 10 7 5 5 4 9 9 12 11 15 16 13 11 11 10 9 9 9 9 12 13 13 9 8 7 5 5 5 4 5 4 3 5
17 19 17 12 16 13 14 17 16 8 13 12 12 12 9 6 12 7 5 6 3 6 10 9 11 11 11 11 10 10 10 10 11 9 10 12 10 11 11 9 7 6 6 7 4 5 3 6 4
22 14 14 10 10 7 15 15 13 12 13 12 13 9 8 2 7 4 5 7 7 5 6 11 11 11 10 12 12 11 11 10 8 5 4 4 7 8 6 7 6 7 6 6 5 5 5 6 5
18 14 17 15 11 9 15 18 15 13 12 14 13 10 4 4 4 3 7 7 8 8 5 5 10 11 12 10 9 9 10 10 9 9 9 10 8 8 10 10 7 9 7 7 7 6 6 6 4
16 18 16 16 11 10 17 19 14 16 9 6 0 4 5 1 2 7 8 10 10 8 5 2 7 11 11 13 9 8 9 7 11 10 9 10 12 14 11 12 10 8 7 8 8 8 7 6 5
18 17 16 16 14 13 22 14 21 17 12 12 9 9 5 3 8 9 11 11 11 11 10 8 2 8 10 11 11 10 9 10 10 7 9 10 13 11 10 10 10 8 9 8 9 8 7 6 7
15 17 12 16 18 16 16 10 17 21 20 16 8 6 5 9 10 11 14 13 14 13 12 12 8 1 4 5 10 9 11 10 9 9 9 9 11 14 14 11 7 6 4 5 4 7 8 5 6
10 13 17 13 15 17 20 18 12 13 22 19 11 7 6 8 11 12 12 14 15 15 14 16 15 13 14 4 4 8 12 9 10 8 9 9 10 11 12 13 10 10 9 8 7 6 6 5 5
13 14 11 15 15 17 18 20 11 11 12 17 13 11 8 6 9 11 12 12 13 16 16 13 14 13 14 11 8 4 8 8 8 11 9 10 9 10 12 12 11 11 9 8 8 8 7 5 5
14 18 15 20 14 14 14 21 11 15 12 12 11 10 8 7 10 10 11 11 13 14 15 15 15 14 14 12 11 11 8 4 5 7 8 4 4 4 11 13 11 12 12 11 9 7 7 7 7
16 14 9 11 18 15 9 12 10 14 13 14 13 10 7 6 7 8 10 9 10 10 12 13 12 13 14 14 12 10 8 9 9 7 6 2 5 4 9 12 12 11 13 14 13 10 11 11 9
12 8 8 10 13 18 15 7 6 3 5 10 12 9 7 3 3 6 7 8 8 9 11 12 11 11 12 13 12 12 11 8 7 7 8 4 6 7 9 11 13 14 15 15 15 12 14 14 10
8 13 14 13 7 12 13 10 7 4 3 12 11 7 6 3 7 8 9 8 10 12 12 11 12 10 11 12 12 12 12 11 11 4 5 6 3 6 9 10 12 12 13 11 11 12 13 13 12
12 13 2 6 13 13 14 11 12 13 9 3 4 2 6 6 7 9 9 10 10 10 12 12 10 12 10 10 10 12 12 12 10 8 6 2 5 5 7 10 10 11 12 10 12 12 12 14 13
Wind_Direction
251 234 263 266 243 234 148 98 180 123 178 360 310 296 14 286 34 43 120 136 144 133 147 150 147 155 153 151 146 144 146 146 139 136 134 132 134 131 125 118 111 105 105 104 102 100 97 113 135
267 272 250 271 264 255 91 129 217 35 67 288 262 259 264 35 69 116 125 137 144 132 149 152 149 151 153 152 145 142 145 143 135 136 137 135 135 132 127 123 116 114 114 110 108 123 151 187 199
254 262 270 255 251 268 127 135 82 90 41 338 7 230 358 64 65 72 95 151 151 141 154 141 149 147 151 152 146 143 145 145 144 148 146 142 140 137 133 127 125 128 137 137 142 166 222 216 199
239 222 240 260 263 253 52 116 73 255 163 352 38 239 140 42 41 50 138 150 152 152 158 138 147 145 149 150 150 147 148 148 150 155 153 151 148 144 142 140 137 139 146 135 135 154 174 244 244
238 262 254 247 240 267 151 77 265 267 252 40 314 54 112 85 75 143 154 164 158 152 147 152 147 147 148 152 152 149 149 148 153 157 159 158 155 152 151 150 153 160 165 178 227 272 276 283 288
239 247 249 245 241 239 259 102 255 269 263 120 324 296 84 108 165 171 160 169 163 151 138 149 148 148 150 154 153 150 150 150 153 156 160 161 161 161 158 157 164 168 182 223 238 290 299 303 298
251 241 250 269 280 262 211 196 244 238 310 61 315 288 120 127 102 138 154 161 160 153 142 153 165 153 152 152 152 151 152 156 156 161 164 164 172 177 172 169 175 181 195 213 253 287 308 315 310
251 259 270 258 262 267 238 215 247 260 246 52 255 348 11 105 130 145 151 160 159 161 148 161 169 169 169 164 155 156 158 162 165 168 169 171 179 193 198 190 184 181 209 218 250 283 297 304 307
244 263 251 252 246 244 232 243 245 282 268 232 189 315 43 126 127 161 155 162 162 167 158 168 173 172 180 169 167 166 169 170 171 179 183 178 213 184 181 154 147 173 200 225 250 273 278 268 263
233 232 252 296 336 303 292 240 275 247 249 225 190 130 73 143 166 165 172 170 172 176 171 169 179 174 186 170 162 188 183 191 194 193 184 219 224 196 283 141 154 179 205 226 237 244 247 251 235
226 250 278 326 269 285 282 263 252 252 256 252 231 132 147 190 202 200 181 176 178 176 185 179 180 169 193 182 159 187 186 193 197 207 205 206 232 199 214 172 180 197 208 216 203 203 230 348 334
241 259 264 278 223 252 256 266 269 262 265 276 202 320 266 179 204 217 195 176 174 191 189 185 177 171 205 186 175 184 197 187 194 197 197 226 225 212 235 230 188 206 170 56 236 281 32 305 312
245 251 263 262 255 247 265 256 266 262 251 264 260 258 245 212 194 230 222 219 183 181 186 190 175 181 195 207 184 196 199 187 195 184 190 211 211 232 221 253 266 228 195 202 244 286 11 227 239
248 256 260 240 246 239 243 253 247 254 258 246 252 244 240 220 190 182 208 228 243 187 180 196 187 171 195 206 205 203 195 191 209 194 193 199 215 220 231 225 231 256 241 239 294 160 288 258 327
258 261 256 245 238 244 237 253 245 243 253 234 239 229 244 267 207 181 175 195 218 201 199 187 196 173 201 197 219 202 203 216 195 217 190 192 204 220 230 227 231 241 114 84 270 255 210 262 238
244 245 254 231 210 223 231 258 222 227 220 237 243 228 209 219 315 34 158 171 166 208 188 197 203 190 185 206 205 218 221 209 220 204 200 200 200 222 195 240 230 248 147 192 231 233 239 250 242
223 247 226 245 180 239 206 249 252 172 191 240 248 237 215 187 105 38 13 358 309 183 197 200 202 209 192 202 210 215 223 222 220 216 210 188 203 199 224 218 228 232 263 246 221 224 271 234 281
226 214 248 237 165 219 230 236 270 175 214 223 234 235 224 211 84 67 31 40 21 284 190 209 202 210 197 190 211 215 222 216 225 217 216 198 203 207 181 231 227 211 220 245 209 275 238 294 244
275 284 294 248 231 213 240 248 235 230 227 224 230 214 214 68 70 63 49 41 34 37 271 190 210 198 213 203 200 211 217 217 216 236 296 273 158 192 185 224 191 230 238 251 171 210 227 253 260
255 260 257 262 253 218 250 242 248 244 226 230 229 171 115 191 141 62 49 49 51 36 22 259 216 208 208 214 220 217 220 220 212 198 214 208 183 199 203 208 225 198 219 206 203 214 239 213 224
241 249 249 254 215 247 263 255 223 230 197 103 121 76 167 175 65 60 60 45 40 31 14 307 264 216 212 233 209 223 245 256 206 197 187 204 204 204 206 196 223 196 207 190 196 206 220 252 210
248 236 253 266 246 240 206 252 215 207 177 182 174 192 151 108 77 57 58 41 47 24 20 15 178 235 216 215 241 218 230 233 229 192 195 192 206 220 214 217 203 218 193 234 177 205 222 219 259
246 270 224 247 255 260 241 241 293 171 180 176 166 125 127 84 63 58 54 46 36 32 35 25 10 29 230 229 232 249 218 252 231 233 225 196 180 209 215 200 203 204 223 198 233 184 204 215 244
287 263 258 242 247 242 244 251 232 217 182 144 139 130 95 83 78 63 65 54 45 39 36 42 22 23 17 302 213 231 278 269 268 224 214 217 203 198 210 201 196 195 191 216 185 200 208 230 288
238 240 239 225 226 243 244 235 254 88 81 134 137 129 105 98 78 62 42 58 50 45 37 45 40 33 17 13 14 211 242 269 283 272 241 237 207 205 186 192 196 187 184 178 166 181 185 213 238
231 233 246 251 247 260 278 228 129 113 117 121 118 101 101 81 73 60 48 39 58 53 41 35 38 33 27 28 19 6 327 249 246 262 274 286 238 224 162 181 171 166 170 181 172 183 189 192 216
252 260 281 312 276 262 238 104 126 142 145 149 139 120 97 78 80 52 67 37 43 44 54 35 21 32 27 26 16 15 16 356 331 304 286 93 97 114 138 159 174 187 186 174 167 185 186 191 194
254 307 254 238 272 272 267 197 338 301 158 159 131 121 93 23 49 47 44 48 39 28 43 33 22 31 26 21 21 14 3 15 353 328 304 191 187 167 178 187 198 199 198 197 196 201 198 201 197
192 235 231 249 214 253 266 281 137 146 54 342 63 58 50 335 6 358 5 13 352 7 14 25 4 13 20 13 11 15 8 20 357 345 334 317 260 206 196 201 210 207 206 207 209 221 219 217 216
304 287 23 294 220 234 269 257 139 156 155 212 57 79 60 15 14 23 8 14 7 7 355 352 353 344 360 6 7 9 360 358 13 3 332 305 254 199 188 184 217 222 216 209 223 226 223 217 219